Вернуться в каталог

STARLINK-37772

АктивенСвязьSSO
NORAD 69330·PAYLOAD·🇺🇸 United States

Запущен Jun 3, 2026 с Vandenberg Space Force Base

Loading…

Ближайшие Пролёты (ближайшие 24 часа)

TLE

СвежийSource: CelesTrak SupGP

Эпоха: Sep 14, 2026, 21:33 UTC

1 69330C 26122B   26257.89840278  .00026198  00000+0  81349-3 0  2572
2 69330  97.2833 286.5268 0001209 102.8420 350.1256 15.33417254    19

Отслеживайте STARLINK-37772 в реальном времени с AllMySat

Download on the App Store